Погода Верхотурье

Погода Верхотурье : погода сейчас, прогноз погоды и архив. Всё, что Вы хотите узнать о погоде Верхотурье!

Хотите узнать прогноз погоды Верхотурье? Тогда Вам сюда: Погода Верхотурье

Поиск расширенной информации на нашем сайте:

Другие новости

Новости СМИ2

Главная страница сайта

Новости сайта

03.07.2017

Напоминаем, что на нашем специализированном сайте Метеоцентр.Азия вы можете получить высокодетализированные автоматические прогнозы погоды по пунктам России, СНГ и мира в авиационном формате (включающие направление и скорость ветра, видимость, явления погоды, количество и форму облачности, нижнюю и верхнюю границу облачности).

Рекомендуем: Кольчуг цветмет цены.

Погода Верхотурье - сегодня

Время (UTC), дата Ветер
(°,м/с) 
Видим.   Явления Облачность Т
(°С)
Тd
(°С)
f(%) Тe
(°С)
Pmin
(гПа)
dP
(гПа)
Po
(мм)
O2
(г/м3)
Тmin Tmax R s Состояние
почвы
18 17.05.18 300 (СЗ) 20000 м    8/3 600 м средняя, верхняя 
[Sc|Ac trans|Ci fib]
+9.5 -5 36 +10  1011.7  0.4  747  292           
21 17.05.18 280 (З) 20000 м    9/6 600 м средняя 
[Sc|Ac und]
+6.8 -3.8 47 +8  1010.6  -1.2  746  294           
00 18.05.18 020 (С) 20000 м    9/8 600 м средняя 
[Sc|Ac und]
+6.2 -4.1 48 +5  1012.4  1.8  748  295           
03 18.05.18 020 (С) 5{11}  20000 м    10/8 300 м кучево-дожд., средняя 
[Cb calv|Ac As]
+4.4 +0.1 74 +2  1017.5  4.9  751  298  +2.9        сухая 
09 18.05.18 090 (В) 3{10}  20000 м    1/0 верхняя 
[Ci fib]
+9.1 -8.5 28 +9  1020.6  0.4  754  295           
12 18.05.18 090 (В) 20000 м    3/0 верхняя 
[Ci fib]
+10.7 -11.1 20 +10  1021.4  0.9  755  294           
18 18.05.18 080 (В) 20000 м    4/0 верхняя 
[Ci sp]
+2.8 -8.8 42 +4  1022.5  0.3  755  302           
21 18.05.18 110 (В) 20000 м    8/0 средняя, верхняя 
[Ac trans|Ci sp]
+1.2 -7.6 52 +1  1022.7  0.1  755  304           
00 19.05.18 140 (ЮВ) 20000 м    9/3 600 м средняя, верхняя 
[Sc|Ac trans|Ci fib]
+2.8 -6.8 49 +1  1021.7  -0.9  755  302           
03 19.05.18 150 (ЮВ) 20000 м    9/3 600 м средняя, верхняя 
[Sc|Ac und|Ci sp]
+6.7 -6.9 37 +5  1019.7  -1.8  753  297  +0.6        сухая 
06 19.05.18 160 (Ю) 20000 м  в посл. час ливневой дождь  10/3 300 м кучево-дожд., средняя 
[Cb calv|Ac As]
+7.6 -4 44 +6  1018.7  -0.9  752  295           
12 19.05.18 160 (Ю) 20000 м  {ливн. осадки}  10/8 300 м кучево-дожд., средняя 
[Cb calv|Ac As]
+8.7 +1 58 +8  1015.7  -2.1  750  293           
18 19.05.18 100 (В) 20000 м  {ливн. осадки}  9/4 300 м кучево-дожд., средняя, верхняя 
[Cb calv|Ac trans|Ci fib]
+5.9 +3.9 87 +6  1010.1  -2.1  746  294           
21 19.05.18 120 (ЮВ) 20000 м  гроза без осадков{ливн. осадки}  9/6 300 м кучево-дожд., средняя, верхняя 
[Cb cap|Ac trans|Ci fib]
+6.6 +4.5 86 +6  1008.4  -1.6  745  292           
00 20.05.18 100 (В) 20000 м  {гроза, ливн. осадки}  9/3 300 м кучево-дожд., средняя, верхняя 
[Cb calv|Ac und|Ci fib]
+7.5 +5.2 85 +7  1006.2  -2.1  743  291           
03 20.05.18 220 (ЮЗ) 20000 м    3/0 верхняя 
[Ci fib]
+16.3 +10.3 68 +19  1005  -0.6  743  281  +5.8    0.3    влажная 
18 20.05.18 310 (СЗ) 20000 м  {гроза, ливн. осадки}  9/8 300 м кучево-дожд., средняя 
[Cb calv|Ac und]
+13.6 +10.1 79 +15  1007.5  744  284           
21 20.05.18 310 (СЗ) 20000 м    9/8 300 м кучево-дожд., средняя 
[Cb calv|Ac und]
+9.9 +5.8 76 +9  1011.5  3.8  747  290           
00 21.05.18 350 (С) 20000 м    9/8 300 м кучево-дожд., средняя 
[Cb calv|Ac und]
+7.4 +2.9 73 +7  1014.6  2.9  749  294           
03 21.05.18 310 (СЗ) 20000 м    10/10 300 м кучево-дожд. 
[Cb calv]
+7 +2 70 +6  1017.7  752  295  +6.8        влажная 
06 21.05.18 340 (С) 20000 м    10/8 300 м кучево-дожд., средняя 
[Cb calv|As op]
+8.4 +2 64 +7  1019.7  753  294           
09 21.05.18 340 (С) 20000 м    9/8 300 м кучево-дожд., средняя 
[Cb calv|Ac und]
+9.9 +0.4 52 +9  1020.8  1.2  754  293           
12 21.05.18 020 (С) 20000 м    3/3 600 м верхняя 
[Cu med, cong|Ci sp]
+13.3 -0.8 38 +13  1021  0.4  754  290           
18 21.05.18 260 (З) 20000 м    1/0 верхняя 
[Ci sp]
+5.6 -0.4 65 +6  1022.4  755  298           
21 21.05.18 260 (З) 20000 м    3/1 600 м верхняя 
[Sc|Ci sp]
+4.4 -1.1 67 +4  1021.8  -0.6  755  299           
Время (UTC), дата Ветер
(°,м/с) 
Видим.   Явления Облачность Т
(°С)
Тd
(°С)
f(%) Тe
(°С)
Pmin
(гПа)
dP
(гПа)
Po
(мм)
O2
(г/м3)
Тmin Tmax R s Состояние
почвы

Для получения пояснительной информации подведите курсор к названию столбца.

ПОГОДА Верхотурье - архив

Всё, что Вы хотите узнать о погоде Верхотурье - удобно и подробно!

Выберите нужную дату (начиная с 1 января 2015* года) и нажмите кнопку "Найти".
Будут отображены архивные сводки погоды по пункту Верхотурье, начиная с указанной даты.


Отображать данные в формате CSV (для использования в таблицах Excel)


Внимание! Наш архив погоды предназначен исключительно для личного некоммерческого использования в познавательных целях. Если Вам необходимы официальные справки о состоянии погоды (для производственных, юридических, коммерческих и т.п. целей), обращайтесь в органы Росгидромета.

*Примечание: данная дата относится к архиву по метеостанциям СССР (Россия, СНГ, Балтия).
Архив по метеостанциям Зарубежной Европы и Азии (кроме Китая) хранится 10 дней, по другим регионам земного шара (Китай, Африка, Америка, Австралия, Океания) - 1 день.

Верхотурье - район местоположения метеостанции


Название, широта, долгота, высота метеостанции:
Верхотурье 58.9°ш. 60.8°д. 125 м над ур. моря [Российская Федерация]

Дополнительная информация

В oтличие oт бoльшинства пoгoдных сайтoв мы публикуем пoдрoбную метеoинфoрмацию в детальнoм прoфессиoнальнoм фoрмате.

Характеристики температуры и влажнoсти вoздуха измеряются на высoте 2 м в тени вдали oт зданий и деревьев.
Скoрoсть ветра измеряется на высoте 10 м (на урoвне рoста челoвека скoрoсть ветра ниже в 1.5-2 раза). Если метеoстанция нахoдится в гoрoде или в лесу, тo скoрoсть ветра занижена на 2-4 м/с пo сравнению с oткрытым местoм. Скoрoсть ветра над акватoриями крупных рек и oзёр, а также на вершинах хoлмoв на 2-5 м/с выше, чем в oбычных услoвиях.
Атмoсфернoе давление в разных тoчках местнoсти мoжет значительнo oтличаться oт давления на метеoстанции, в зависимoсти oт услoвий рельефа (при пoдъёме на 10 м давление пoнижается примернo на 1 мм рт.ст.).